[ hide orbit diagram ]
For accurate long-term ephemerides, please instead use our Horizons system.This orbit viewer was implemented using two-body methods, and hence should not be used for determining accurate long-term trajectories (over several years or decades) or planetary encounter circumstances.
Orbital Elements at Epoch 2459000.5 (2020-May-31.0) TDB
Reference: JPL 14 (heliocentric ecliptic J2000)
Element | Value | Uncertainty (1-sigma) | Units |
e | .09041523875770377 | 6.0346e-08 | |
a | 2.698323456013617 | 2.7488e-08 | au |
q | 2.454353896492634 | 1.7633e-07 | au |
i | 3.022043409481888 | 5.8572e-06 | deg |
node | 76.98958071033307 | 0.00010633 | deg |
peri | 270.1914806270076 | 0.00011142 | deg |
M | 313.6770963760425 | 3.185e-05 | deg |
tp | 2459208.820837645036 (2020-Dec-25.32083764) | 0.00014334 | TDB |
period | 1618.972380509986 4.43 | 2.4739e-05 6.773e-08 | d yr |
n | .2223632745894021 | 3.3979e-09 | deg/d |
Q | 2.942293015534601 | 2.9974e-08 | au |
|
| | Orbit Determination Parameters
Additional Information
|
[ show covariance matrix ]
Physical Parameter Table
Parameter |
Symbol |
Value |
Units |
Sigma |
Reference |
Notes |
absolute magnitude |
H |
17.1 |
|
n/a |
MPO434607 |
|
|
437179 (2012 VV71) Discovered 2003-Oct-22 by Spacewatch at Kitt Peak |
Reference: | Last Updated: 2015-06-04 |
|
|